Kenosha, WI

7:24 AM CST on December 16, 2017 (GMT -0600)
Kenosha Regional

Weather History for KENW - June, 2013

Change the Weather History Date:

Friday, June 14, 2013

  Actual Average Record
Temperature  
Mean Temperature 64 °F -  
Max Temperature 73 °F 75 °F 94 °F (1987)
Min Temperature 54 °F 55 °F 43 °F (1959)
Degree Days  
Heating Degree Days 2    
Growing Degree Days 14 (Base 50)    
Moisture  
Dew Point 50 °F    
Average Humidity 67    
Maximum Humidity 83    
Minimum Humidity 51    
Precipitation  
Precipitation 0.00 in - - ()
Sea Level Pressure  
Sea Level Pressure 30.09 in    
Wind  
Wind Speed 6 mph (ENE)    
Max Wind Speed 12 mph    
Max Gust Speed -    
Visibility 10 miles    
Events      
Averages and records for this station are not official NWS values.
T = Trace of Precipitation, MM = Missing Value Source: NWS Daily Summary

Daily Weather History Graph

Daily Weather History Graph

Search for Another Location

Airport or City:

Trip Planner

Search our weather history database for the weather conditions in past years. The results will help you decide how hot, cold, wet, or windy it might be!

Date:

Astronomy

Jun. 14, 2013 Rise Set
Actual Time 5:13 AM CDT 8:30 PM CDT
Civil Twilight 4:38 AM CDT 9:05 PM CDT
Nautical Twilight 3:53 AM CDT 9:51 PM CDT
Astronomical Twilight 2:58 AM CDT 10:46 PM CDT
Moon 10:54 AM CDT (6/14) 11:59 PM CDT (6/14)
Length of Visible Light 16h 27m
Length of Day
15h 17m
Waxing Crescent, 30% of the Moon is Illuminated
Jun 14
Waxing Crescent
Jun 16
First Quarter
Jun 23
Full
Jun 29
Last Quarter
Jul 8
New

Hourly Weather History & Observations

Time (CDT) Temp. Dew Point Humidity Pressure Visibility Wind Dir Wind Speed Gust Speed Precip Events Conditions
12:53 AM 55.0 °F 48.9 °F 80% 30.07 in 10.0 mi NNE 6.9 mph - N/A   Clear
1:53 AM 55.0 °F 48.9 °F 80% 30.07 in 10.0 mi North 4.6 mph - N/A   Clear
2:53 AM 55.0 °F 48.9 °F 80% 30.08 in 10.0 mi North 4.6 mph - N/A   Clear
3:53 AM 54.0 °F 48.9 °F 83% 30.08 in 10.0 mi North 5.8 mph - N/A   Clear
4:53 AM 54.0 °F 48.0 °F 80% 30.08 in 10.0 mi North 5.8 mph - N/A   Clear
5:53 AM 55.0 °F 48.0 °F 77% 30.09 in 10.0 mi NNE 4.6 mph - N/A   Clear
6:53 AM 57.9 °F 48.0 °F 70% 30.12 in 10.0 mi North 5.8 mph - N/A   Clear
7:53 AM 60.1 °F 48.9 °F 67% 30.14 in 10.0 mi North 6.9 mph - N/A   Clear
8:53 AM 64.0 °F 52.0 °F 65% 30.14 in 10.0 mi ENE 6.9 mph - N/A   Clear
9:53 AM 66.9 °F 53.1 °F 61% 30.15 in 10.0 mi Variable 3.5 mph - N/A   Clear
10:53 AM 68.0 °F 53.1 °F 59% 30.13 in 10.0 mi SE 5.8 mph - N/A   Clear
11:53 AM 69.1 °F 54.0 °F 58% 30.13 in 10.0 mi East 8.1 mph - N/A   Clear
12:53 PM 70.0 °F 54.0 °F 57% 30.13 in 10.0 mi Variable 3.5 mph - N/A   Clear
1:53 PM 73.0 °F 54.0 °F 51% 30.12 in 10.0 mi Variable 3.5 mph - N/A   Clear
2:53 PM 72.0 °F 53.1 °F 51% 30.11 in 10.0 mi East 8.1 mph - N/A   Clear
3:53 PM 71.1 °F 53.1 °F 53% 30.10 in 10.0 mi East 8.1 mph - N/A   Clear
4:53 PM 68.0 °F 53.1 °F 59% 30.09 in 10.0 mi East 11.5 mph - N/A   Clear
5:53 PM 64.9 °F 50.0 °F 58% 30.06 in 10.0 mi East 9.2 mph - N/A   Clear
6:53 PM 62.1 °F 48.9 °F 62% 30.05 in 10.0 mi East 8.1 mph - N/A   Clear
7:53 PM 59.0 °F 48.9 °F 69% 30.06 in 10.0 mi ENE 3.5 mph - N/A   Clear
8:53 PM 57.0 °F 46.9 °F 69% 30.06 in 10.0 mi East 3.5 mph - N/A   Clear
9:53 PM 54.0 °F 46.9 °F 77% 30.07 in 10.0 mi East 3.5 mph - N/A   Clear
10:53 PM 55.9 °F 46.9 °F 72% 30.06 in 10.0 mi SSE 3.5 mph - N/A   Clear
11:53 PM 55.0 °F 46.9 °F 74% 30.04 in 10.0 mi SE 4.6 mph - N/A   Clear